Regional Weather Roundup
Issued by NWS

Home | Current Version | Previous Version | Graphics & Text | Print | Product List | Glossary On
Versions: 1 2 3 4 5 6 7 8 9 10 11 12 13 14 15 16 17 18 19 20 21 22 23 24 25 26 27 28 29 30 31 32 33 34 35 36 37 38 39 40 41 42 43 44 45 46 47 48 49 50
000
ASUS43 KLOT 301400
RWRIL

ILLINOIS REGIONAL WEATHER ROUNDUP
NATIONAL WEATHER SERVICE CHICAGO/ROMEOVILLE IL
900 AM CDT TUE JUN 30 2015

NOTE: "FAIR" INDICATES FEW OR NO CLOUDS BELOW 12,000 FEET WITH NO
SIGNIFICANT WEATHER AND/OR OBSTRUCTIONS TO VISIBILITY.

* THESE STATIONS ARE NOT UNDER NWS QUALITY CONTROL. THEY ALSO MAY NOT
  REPORT WEATHER SUCH AS PRECIPITATION OR FOG.

ILZ001-002-007-009-015-016-024-301500-
NORTHWEST ILLINOIS

CITY           SKY/WX    TMP DP  RH WIND       PRES   REMARKS
MOLINE         MOSUNNY   72  59  63 N7        29.86S
STERLING*      SUNNY     70  63  78 N8        29.86R
$$

ILZ003-004-008-010-011-017-018-301500-
NORTH CENTRAL ILLINOIS

CITY           SKY/WX    TMP DP  RH WIND       PRES   REMARKS
ROCKFORD       MOSUNNY   66  60  81 NW7       29.86R
$$

ILZ005-006-012>014-019>023-301500-
NORTHEAST ILLINOIS

CITY           SKY/WX    TMP DP  RH WIND       PRES   REMARKS
CHICAGO-OHARE  MOSUNNY   66  59  78 NW8       29.82R
CHICAGO-MIDWAY MOSUNNY   70  61  73 NW7       29.82R
AURORA         MOSUNNY   67  60  78 NW6       29.84R
WAUKEGAN       SUNNY     67  60  78 W7        29.81R
DUPAGE AIRPORT SUNNY     67  60  78 NW6       29.83R
WHEELING       MOSUNNY   68  59  73 NW3       29.83R
NORTHERLY ISL    N/A     69  60  73 W8          N/A
$$

LMZ740>746-301500-
SOUTHERN LAKE MICHIGAN

STATION/POSITION SKY/WX   TEMP    WIND        PRES    VSBY  WAVE
                          AIR SEA DIR/SP/G                  HT/PER
                          (F)     (DEG/KT/KT) (MB)    (MI)  (FT/S)
HARRISON CRIB              65     300/  7/  8   N/A
BURNHAM HARBOR             68     290/  6/  9   N/A
CALUMET HARBOR             67     260/  2/  6   N/A
BURNS HARBOR               65     270/  8/  9 1010.2R
MICHIGAN CITY              63     250/ 10/ 11   N/A
MICHIGAN CITY 6N           64 65  290/  8/  8   N/A           1
ST. JOSEPH                 64 63                N/A           0
$$

ILZ025>027-034>036-040-047-049-050-058-095>099-301500-
WEST-CENTRAL ILLINOIS

CITY           SKY/WX    TMP DP  RH WIND       PRES   REMARKS
QUINCY         SUNNY     71  66  84 SW5       29.89R
$$

ILZ028>032-037-038-041>044-048-051>054-059>061-301500-
CENTRAL ILLINOIS

CITY           SKY/WX    TMP DP  RH WIND       PRES   REMARKS
DECATUR        SUNNY     73  67  81 W5        29.87R
PEORIA         SUNNY     74  64  71 VRB3      29.87R
SPRINGFIELD    SUNNY     74  68  81 W7        29.87S
TAYLORVILLE    NOT AVBL
$$

ILZ033-039-045-046-055>057-062-063-301500-
EAST-CENTRAL ILLINOIS

CITY           SKY/WX    TMP DP  RH WIND       PRES   REMARKS
CHAMPAIGN      MOSUNNY   71  66  84 W6        29.86S
MATTOON        PTSUNNY   70  67  90 SW5       29.86F
$$

ILZ079-100>102-301500-
SOUTHWEST ILLINOIS

CITY           SKY/WX    TMP DP  RH WIND       PRES   REMARKS
ALTON          SUNNY     72  72 100 W5        29.91R
BELLEVILLE     MOSUNNY   74  71  91 W6        29.89S
CAHOKIA*       SUNNY     74  68  81 SW6       29.90R
$$

ILZ064>066-069>071-074>076-080>082-084>086-088>090-092>094-301500-
SOUTH-CENTRAL ILLINOIS

CITY           SKY/WX    TMP DP  RH WIND       PRES   REMARKS
CARBONDALE     SUNNY     74  68  81 W5        29.91R
MARION         SUNNY     75  70  83 W8        29.92R
MT. VERNON     SUNNY     73  66  78 W6        29.90S
$$

ILZ067-068-072-073-078-083-087-091-301500-
SOUTHEAST ILLINOIS

CITY           SKY/WX    TMP DP  RH WIND       PRES   REMARKS
LAWRENCEVILLE  MOSUNNY   74  68  81 W8        29.88S
$$

ABBREVIATIONS USED IN REMARKS
   TC - TEMPERATURE IN CELSIUS
  WCI - WIND CHILL INDEX
   HX - HEAT INDEX
  VSB - VISIBILITY
$$



USA.gov is the U.S. government's official web portal to all federal, state and local government web resources and services.